Location: *
(50.9167°S, 179.4000°W)
Time: 19:22:20
(UTC+00:00)

Cosmos 2237 Rocket - Pass Details

Date: 03 March 2024
Orbit: 833 x 851 km, 71.0° (Epoch: 16 April)

Event Time Altitude Azimuth Distance (km) Brightness Sun altitude
Exits shadow 14:36:15 11° 244° (WSW) 2,397 4.4 -24.5°
Maximum altitude 14:39:22 17° 209° (SSW) 2,063 4.4 -24.2°
Drops below altitude 10° 14:42:59 10° 170° (S) 2,502 5.4 -23.8°
Sets 14:46:26 0° 149° (SSE) 3,438 6.7 -23.4°
